| time (UTC) | temp F | wind direction | speed MPH | gust MPH | rain 1hr in | rain 24hr in | rain mn in | humidity % | barometer mb |
| 20260502221122 | 63 | 309 | 3.0 | 5.0 | 0.00 | 0.00 | 0.00 | 43 | 1007.9 |
| 20260502220126 | 62 | 352 | 3.0 | 5.0 | 0.00 | 0.00 | 0.00 | 46 | 1007.9 |
| 20260502215122 | 62 | 123 | 3.0 | 5.0 | 0.00 | 0.00 | 0.00 | 49 | 1007.8 |
| 20260502214122 | 63 | 295 | 4.0 | 7.0 | 0.00 | 0.00 | 0.00 | 44 | 1007.8 |
| 20260502213122 | 64 | 320 | 4.0 | 7.0 | 0.00 | 0.00 | 0.00 | 44 | 1007.8 |
| 20260502212122 | 63 | 315 | 4.0 | 6.0 | 0.00 | 0.00 | 0.00 | 45 | 1007.7 |
| 20260502211121 | 64 | 346 | 5.0 | 8.0 | 0.00 | 0.00 | 0.00 | 46 | 1007.6 |
| 20260502210122 | 65 | 286 | 4.0 | 8.0 | 0.00 | 0.00 | 0.00 | 46 | 1007.5 |
| 20260502205121 | 67 | 319 | 5.0 | 12.0 | 0.00 | 0.00 | 0.00 | 43 | 1007.5 |
| 20260502204142 | 66 | 318 | 4.0 | 7.0 | 0.00 | 0.00 | 0.00 | 42 | 1007.5 |
| 20260502203143 | 64 | 308 | 4.0 | 7.0 | 0.00 | 0.00 | 0.00 | 46 | 1007.6 |
| 20260502202122 | 64 | 311 | 4.0 | 6.0 | 0.00 | 0.00 | 0.00 | 44 | 1007.9 |
| 20260502201142 | 67 | 290 | 4.0 | 7.0 | 0.00 | 0.00 | 0.00 | 42 | 1008.0 |
| 20260502200121 | 68 | 277 | 4.0 | 8.0 | 0.00 | 0.00 | 0.00 | 42 | 1008.0 |
| 20260502195121 | 67 | 244 | 3.0 | 7.0 | 0.00 | 0.00 | 0.00 | 45 | 1008.2 |
| 20260502194142 | 65 | 277 | 4.0 | 9.0 | 0.00 | 0.00 | 0.00 | 46 | 1008.2 |
| 20260502193142 | 67 | 245 | 3.0 | 5.0 | 0.00 | 0.00 | 0.00 | 46 | 1008.5 |
| 20260502192122 | 66 | 317 | 5.0 | 8.0 | 0.00 | 0.00 | 0.00 | 49 | 1008.7 |
| 20260502191122 | 67 | 345 | 4.0 | 7.0 | 0.00 | 0.00 | 0.00 | 49 | 1008.8 |
| 20260502190122 | 62 | 259 | 3.0 | 5.0 | 0.00 | 0.00 | 0.00 | 53 | 1008.8 |
| 20260502185122 | 62 | 321 | 3.0 | 6.0 | 0.00 | 0.00 | 0.00 | 54 | 1008.9 |
| 20260502184121 | 62 | 298 | 4.0 | 7.0 | 0.00 | 0.00 | 0.00 | 56 | 1009.1 |
| 20260502183122 | 62 | 262 | 3.0 | 6.0 | 0.00 | 0.00 | 0.00 | 57 | 1009.2 |
| 20260502182143 | 62 | 268 | 3.0 | 4.0 | 0.00 | 0.00 | 0.00 | 58 | 1009.2 |
| 20260502181122 | 62 | 331 | 3.0 | 5.0 | 0.00 | 0.00 | 0.00 | 59 | 1009.2 |
| 20260502180124 | 61 | 284 | 3.0 | 7.0 | 0.00 | 0.00 | 0.00 | 62 | 1009.2 |
| 20260502170121 | 59 | 302 | 3.0 | 7.0 | 0.00 | 0.00 | 0.00 | 69 | 1009.8 |
| 20260502164123 | 60 | 343 | 3.0 | 5.0 | 0.00 | 0.00 | 0.00 | 68 | 1010.0 |
| 20260502163125 | 59 | 329 | 3.0 | 5.0 | 0.00 | 0.00 | 0.00 | 69 | 1009.9 |
| 20260502162121 | 59 | 328 | 3.0 | 6.0 | 0.00 | 0.00 | 0.00 | 72 | 1009.8 |
| 20260502161121 | 58 | 290 | 4.0 | 7.0 | 0.00 | 0.00 | 0.00 | 75 | 1010.0 |
| 20260502160121 | 58 | 314 | 4.0 | 6.0 | 0.00 | 0.00 | 0.00 | 76 | 1010.0 |
| 20260502152126 | 58 | 286 | 2.0 | 3.0 | 0.00 | 0.00 | 0.00 | 77 | 1010.1 |
| 20260502151124 | 58 | 351 | 3.0 | 6.0 | 0.00 | 0.00 | 0.00 | 77 | 1010.2 |
| 20260502150121 | 57 | 82 | 3.0 | 5.0 | 0.00 | 0.00 | 0.00 | 79 | 1010.2 |
| 20260502140125 | 55 | 310 | 2.0 | 5.0 | 0.00 | 0.00 | 0.00 | 83 | 1010.2 |
| 20260502130121 | 55 | 118 | 2.0 | 3.0 | 0.00 | 0.00 | 0.00 | 84 | 1010.4 |
| 20260502123142 | 54 | 63 | 2.0 | 4.0 | 0.00 | 0.00 | 0.00 | 86 | 1010.2 |
| 20260502122142 | 53 | 104 | 2.0 | 4.0 | 0.00 | 0.00 | 0.00 | 91 | 1010.2 |
| 20260502121122 | 52 | 101 | 3.0 | 4.0 | 0.00 | 0.00 | 0.00 | 92 | 1010.2 |
| 20260502120122 | 52 | 103 | 3.0 | 5.0 | 0.00 | 0.00 | 0.00 | 93 | 1010.4 |
| 20260502115122 | 52 | 104 | 2.0 | 4.0 | 0.00 | 0.00 | 0.00 | 94 | 1010.4 |
| 20260502114123 | 52 | 306 | 2.0 | 4.0 | 0.00 | 0.00 | 0.00 | 96 | 1010.5 |
| 20260502113142 | 51 | 306 | 2.0 | 4.0 | 0.00 | 0.00 | 0.00 | 96 | 1010.4 |
| 20260502112121 | 51 | 320 | 2.0 | 3.0 | 0.00 | 0.00 | 0.00 | 97 | 1010.2 |
| 20260502111121 | 51 | 324 | 2.0 | 4.0 | 0.00 | 0.00 | 0.00 | 98 | 1009.8 |
| 20260502110142 | 51 | 60 | 2.0 | 5.0 | 0.00 | 0.00 | 0.00 | 99 | 1009.8 |
| 20260502105121 | 50 | 64 | 2.0 | 4.0 | 0.00 | 0.00 | 0.00 | 99 | 1009.6 |
| 20260502104121 | 50 | 108 | 1.0 | 4.0 | 0.00 | 0.00 | 0.00 | 99 | 1009.6 |
| 20260502103122 | 50 | 115 | 2.0 | 3.0 | 0.00 | 0.00 | 0.00 | 99 | 1009.8 |
| 20260502102121 | 50 | 299 | 1.0 | 3.0 | 0.00 | 0.00 | 0.00 | 99 | 1009.7 |
| 20260502101143 | 51 | 270 | 0.0 | 0.0 | 0.00 | 0.00 | 0.00 | 98 | 1009.9 |
| 20260502100143 | 51 | 232 | 1.0 | 2.0 | 0.00 | 0.00 | 0.00 | 97 | 1009.9 |
| 20260502091121 | 51 | 242 | 2.0 | 4.0 | 0.00 | 0.00 | 0.00 | 92 | 1009.7 |
| 20260502090121 | 52 | 215 | 2.0 | 4.0 | 0.00 | 0.00 | 0.00 | 91 | 1009.7 |
| 20260502071125 | 52 | 236 | 2.0 | 6.0 | 0.00 | 0.00 | 0.00 | 89 | 1009.8 |
| 20260502070121 | 51 | 254 | 2.0 | 5.0 | 0.00 | 0.00 | 0.00 | 89 | 1009.8 |
| 20260502065122 | 51 | 235 | 2.0 | 4.0 | 0.00 | 0.00 | 0.00 | 89 | 1009.8 |
| 20260502064121 | 51 | 204 | 2.0 | 4.0 | 0.00 | 0.00 | 0.00 | 89 | 1009.9 |
| 20260502063124 | 51 | 250 | 2.0 | 4.0 | 0.00 | 0.00 | 0.00 | 89 | 1010.0 |
| 20260502062122 | 51 | 231 | 1.0 | 3.0 | 0.00 | 0.00 | 0.00 | 89 | 1010.0 |
| 20260502061122 | 51 | 196 | 2.0 | 4.0 | 0.00 | 0.00 | 0.00 | 87 | 1010.2 |
| 20260502060124 | 51 | 191 | 1.0 | 3.0 | 0.00 | 0.00 | 0.00 | 87 | 1010.2 |
| 20260502055124 | 51 | 186 | 1.0 | 2.0 | 0.00 | 0.00 | 0.00 | 86 | 1010.1 |
| 20260502054122 | 51 | 196 | 0.0 | 2.0 | 0.00 | 0.00 | 0.00 | 84 | 1010.1 |
| 20260502053122 | 52 | 227 | 1.0 | 3.0 | 0.00 | 0.00 | 0.00 | 83 | 1009.9 |
| 20260502052123 | 52 | 227 | 2.0 | 4.0 | 0.00 | 0.00 | 0.00 | 82 | 1010.1 |
| 20260502051121 | 52 | 246 | 1.0 | 4.0 | 0.00 | 0.00 | 0.00 | 81 | 1009.9 |
| 20260502050121 | 52 | 201 | 1.0 | 3.0 | 0.00 | 0.00 | 0.00 | 81 | 1009.9 |
| 20260502045121 | 53 | 242 | 2.0 | 5.0 | 0.00 | 0.00 | 0.00 | 81 | 1009.9 |
| 20260502044121 | 53 | 234 | 2.0 | 4.0 | 0.00 | 0.00 | 0.00 | 81 | 1010.0 |
| 20260502043122 | 53 | 220 | 3.0 | 6.0 | 0.00 | 0.00 | 0.00 | 81 | 1010.2 |
| 20260502042142 | 53 | 253 | 3.0 | 6.0 | 0.00 | 0.00 | 0.00 | 83 | 1010.2 |
| 20260502041121 | 52 | 247 | 3.0 | 6.0 | 0.00 | 0.00 | 0.00 | 84 | 1010.2 |
| 20260502040123 | 52 | 234 | 2.0 | 7.0 | 0.00 | 0.00 | 0.00 | 88 | 1010.1 |
| 20260502035122 | 52 | 176 | 2.0 | 4.0 | 0.00 | 0.00 | 0.00 | 91 | 1010.1 |
| 20260502034122 | 51 | 215 | 2.0 | 3.0 | 0.00 | 0.00 | 0.00 | 93 | 1010.0 |
| 20260502033123 | 51 | 175 | 1.0 | 3.0 | 0.00 | 0.00 | 0.00 | 95 | 1010.0 |
| 20260502032123 | 51 | 183 | 1.0 | 3.0 | 0.00 | 0.00 | 0.00 | 96 | 1010.2 |
| 20260502031123 | 50 | 181 | 1.0 | 3.0 | 0.00 | 0.00 | 0.00 | 97 | 1010.4 |
| 20260502030122 | 50 | 206 | 1.0 | 3.0 | 0.00 | 0.00 | 0.00 | 97 | 1010.5 |
| 20260502025121 | 50 | 172 | 1.0 | 3.0 | 0.00 | 0.00 | 0.00 | 98 | 1010.5 |
| 20260502024122 | 50 | 188 | 1.0 | 3.0 | 0.00 | 0.00 | 0.00 | 97 | 1010.5 |
| 20260502023142 | 50 | 208 | 2.0 | 3.0 | 0.00 | 0.00 | 0.00 | 96 | 1010.5 |
| 20260502022144 | 50 | 202 | 2.0 | 3.0 | 0.00 | 0.00 | 0.00 | 95 | 1010.4 |
| 20260502021123 | 50 | 182 | 1.0 | 2.0 | 0.00 | 0.00 | 0.00 | 95 | 1010.5 |
| 20260502020122 | 50 | 249 | 2.0 | 5.0 | 0.00 | 0.00 | 0.00 | 94 | 1010.5 |
| 20260502015122 | 51 | 200 | 2.0 | 5.0 | 0.00 | 0.00 | 0.00 | 93 | 1010.5 |
| 20260502014122 | 51 | 200 | 1.0 | 3.0 | 0.00 | 0.00 | 0.00 | 91 | 1010.2 |
| 20260502013123 | 51 | 211 | 2.0 | 3.0 | 0.00 | 0.00 | 0.00 | 90 | 1010.2 |
| 20260502012121 | 51 | 222 | 2.0 | 5.0 | 0.00 | 0.00 | 0.00 | 88 | 1010.2 |
| 20260502011121 | 51 | 225 | 2.0 | 4.0 | 0.00 | 0.00 | 0.00 | 86 | 1010.0 |
| 20260502010142 | 52 | 203 | 2.0 | 6.0 | 0.00 | 0.00 | 0.00 | 85 | 1010.0 |
| 20260502005122 | 52 | 240 | 4.0 | 7.0 | 0.00 | 0.00 | 0.00 | 84 | 1010.0 |
| 20260502004121 | 52 | 223 | 3.0 | 5.0 | 0.00 | 0.00 | 0.00 | 83 | 1010.1 |
| 20260502003122 | 53 | 222 | 3.0 | 7.0 | 0.00 | 0.00 | 0.00 | 81 | 1010.0 |
| 20260502002121 | 53 | 218 | 3.0 | 6.0 | 0.00 | 0.00 | 0.00 | 81 | 1009.9 |
| 20260502001122 | 53 | 191 | 3.0 | 6.0 | 0.00 | 0.00 | 0.00 | 80 | 1009.7 |
| 20260502000122 | 53 | 225 | 3.0 | 6.0 | 0.00 | 0.00 | 0.00 | 81 | 1009.6 |
| 20260501235124 | 53 | 228 | 3.0 | 6.0 | 0.00 | 0.00 | 0.00 | 81 | 1009.6 |
| 20260501234121 | 53 | 225 | 3.0 | 8.0 | 0.00 | 0.00 | 0.00 | 80 | 1009.6 |
| 20260501233142 | 53 | 236 | 3.0 | 5.0 | 0.00 | 0.00 | 0.00 | 79 | 1009.5 |
| 20260501232146 | 54 | 230 | 3.0 | 6.0 | 0.00 | 0.00 | 0.00 | 79 | 1009.4 |
| 20260501231123 | 54 | 223 | 3.0 | 7.0 | 0.00 | 0.00 | 0.00 | 78 | 1009.2 |
| 20260501230122 | 54 | 256 | 3.0 | 5.0 | 0.00 | 0.00 | 0.00 | 77 | 1009.2 |
| 20260501225123 | 55 | 237 | 3.0 | 4.0 | 0.00 | 0.00 | 0.00 | 75 | 1009.2 |
| 20260501224121 | 56 | 265 | 4.0 | 9.0 | 0.00 | 0.00 | 0.00 | 73 | 1009.2 |
| 20260501223122 | 57 | 207 | 4.0 | 6.0 | 0.00 | 0.00 | 0.00 | 71 | 1009.2 |
| 20260501222122 | 57 | 216 | 4.0 | 9.0 | 0.00 | 0.00 | 0.00 | 68 | 1009.4 |